TimeCST,TemperatureF,Dew PointF,Humidity,Sea Level PressureIn,VisibilityMPH,Wind Direction,Wind SpeedMPH,Gust SpeedMPH,PrecipitationIn,Events,Conditions,WindDirDegrees,DateUTC
12:53 AM,37.9,-9999,N/A,29.60,7.0,West,13.8,-,N/A,,Overcast,260,2013-02-27 06:53:00
1:28 AM,37.4,37.4,100,29.62,9.0,West,20.7,-,N/A,,Overcast,260,2013-02-27 07:28:00
1:53 AM,37.0,37.0,100,29.64,7.0,West,19.6,24.2,N/A,,Overcast,260,2013-02-27 07:53:00
2:53 AM,36.0,35.1,97,29.64,8.0,West,12.7,-,N/A,,Overcast,260,2013-02-27 08:53:00
4:53 AM,36.0,32.0,86,29.67,6.0,WSW,13.8,-,N/A,,Overcast,250,2013-02-27 10:53:00
5:53 AM,35.1,32.0,89,29.68,5.0,WSW,10.4,-,N/A,,Overcast,250,2013-02-27 11:53:00
6:30 AM,33.8,30.2,87,29.69,2.5,WSW,15.0,-,0.00,Snow,Light Snow,240,2013-02-27 12:30:00
6:53 AM,35.1,30.9,85,29.70,3.0,SW,12.7,-,0.00,Snow,Light Snow,230,2013-02-27 12:53:00
7:53 AM,36.0,30.9,82,29.72,5.0,WSW,13.8,21.9,0.00,,Haze,240,2013-02-27 13:53:00
8:53 AM,36.0,30.0,79,29.73,7.0,WSW,12.7,21.9,N/A,,Overcast,250,2013-02-27 14:53:00
9:53 AM,36.0,30.0,79,29.74,7.0,WSW,17.3,-,N/A,,Overcast,250,2013-02-27 15:53:00
10:53 AM,37.0,30.0,76,29.74,8.0,WSW,17.3,-,N/A,,Overcast,250,2013-02-27 16:53:00
11:23 AM,37.4,30.2,75,29.73,8.0,SW,16.1,-,N/A,,Overcast,230,2013-02-27 17:23:00
11:53 AM,37.9,30.0,73,29.73,8.0,WSW,17.3,-,N/A,,Overcast,250,2013-02-27 17:53:00
12:53 PM,36.0,30.0,79,29.74,1.8,WSW,15.0,-,0.00,Snow,Light Snow,250,2013-02-27 18:53:00
1:07 PM,35.6,30.2,81,29.73,3.0,WSW,15.0,-,0.01,Snow,Light Snow,250,2013-02-27 19:07:00
1:15 PM,37.4,32.0,81,29.72,6.0,WSW,16.1,-,0.01,Snow,Light Snow,250,2013-02-27 19:15:00
1:32 PM,37.4,32.0,81,29.72,6.0,WSW,19.6,24.2,0.01,Snow,Light Snow,250,2013-02-27 19:32:00
1:53 PM,37.9,32.0,79,29.74,8.0,WSW,16.1,-,0.01,Rain,Light Rain,250,2013-02-27 19:53:00
2:28 PM,35.6,30.2,81,29.74,6.0,WSW,17.3,25.3,0.00,Snow,Light Snow,250,2013-02-27 20:28:00
2:53 PM,36.0,32.0,86,29.75,3.0,WSW,15.0,25.3,0.00,Snow,Light Snow,250,2013-02-27 20:53:00
3:26 PM,37.4,32.0,81,29.74,7.0,West,19.6,-,0.00,,Overcast,260,2013-02-27 21:26:00
3:53 PM,36.0,30.9,82,29.76,4.0,West,13.8,-,0.00,Snow,Light Snow,280,2013-02-27 21:53:00
3:59 PM,35.6,32.0,87,29.76,1.8,West,15.0,-,0.01,Snow,Light Snow,280,2013-02-27 21:59:00
4:13 PM,33.8,33.8,100,29.76,3.0,West,10.4,-,0.01,Snow,Light Snow,270,2013-02-27 22:13:00
4:24 PM,35.6,-9999,N/A,29.76,5.0,West,10.4,-,0.01,Snow,Light Snow,270,2013-02-27 22:24:00
4:37 PM,35.6,-9999,N/A,29.77,3.0,West,12.7,-,0.01,Snow,Light Snow,260,2013-02-27 22:37:00
4:41 PM,33.8,-9999,N/A,29.77,1.8,West,9.2,-,0.01,Snow,Light Snow,260,2013-02-27 22:41:00
4:48 PM,33.8,-9999,N/A,29.77,1.0,West,9.2,-,0.01,Snow,Light Snow,270,2013-02-27 22:48:00
4:53 PM,34.0,-9999,N/A,29.78,1.2,WNW,11.5,-,0.02,Snow,Light Snow,290,2013-02-27 22:53:00
5:15 PM,33.8,-9999,N/A,29.78,2.5,West,12.7,19.6,0.01,Snow,Light Snow,270,2013-02-27 23:15:00
5:23 PM,33.8,-9999,N/A,29.78,4.0,West,12.7,-,0.01,Snow,Light Snow,270,2013-02-27 23:23:00
5:53 PM,34.0,-9999,N/A,29.80,6.0,West,10.4,-,0.01,,Haze,260,2013-02-27 23:53:00
6:34 PM,33.8,-9999,N/A,29.80,2.5,West,13.8,-,0.00,Snow,Light Snow,260,2013-02-28 00:34:00
6:53 PM,34.0,-9999,N/A,29.81,2.5,West,13.8,-,0.00,Snow,Light Snow,260,2013-02-28 00:53:00
7:39 PM,33.8,-9999,N/A,29.81,4.0,West,10.4,-,0.00,Snow,Light Snow,260,2013-02-28 01:39:00
7:53 PM,34.0,-9999,N/A,29.82,3.0,West,10.4,-,0.00,Snow,Light Snow,260,2013-02-28 01:53:00
8:15 PM,33.8,-9999,N/A,29.81,4.0,West,10.4,-,0.00,Snow,Light Snow,260,2013-02-28 02:15:00
8:53 PM,34.0,-9999,N/A,29.82,5.0,West,11.5,-,0.00,,Haze,260,2013-02-28 02:53:00
9:42 PM,33.8,-9999,N/A,29.82,8.0,West,15.0,-,N/A,,Overcast,280,2013-02-28 03:42:00
9:53 PM,34.0,-9999,N/A,29.83,8.0,West,15.0,-,N/A,,Overcast,270,2013-02-28 03:53:00
10:53 PM,34.0,-9999,N/A,29.83,7.0,West,13.8,-,N/A,,Overcast,280,2013-02-28 04:53:00
11:53 PM,33.1,-9999,N/A,29.82,3.0,West,11.5,-,0.00,Snow,Light Snow,270,2013-02-28 05:53:00